Regional Weather Roundup
Issued by NWS

Home | Current Version | Previous Version | Text Only | Print | Product List | Glossary Off
Versions: 1 2 3 4 5 6 7 8 9 10 11 12 13 14 15 16 17 18 19 20 21 22 23 24 25 26 27 28 29 30 31 32 33 34 35 36 37 38 39 40 41 42 43 44 45 46 47 48 49 50

000
ASUS43 KLOT 230703
RWRIL

ILLINOIS REGIONAL WEATHER ROUNDUP
NATIONAL WEATHER SERVICE CHICAGO/ROMEOVILLE IL
200 AM CDT SAT JUL 23 2016

NOTE: "FAIR" INDICATES FEW OR NO CLOUDS BELOW 12,000 FEET WITH NO
SIGNIFICANT WEATHER AND/OR OBSTRUCTIONS TO VISIBILITY.

* THESE STATIONS ARE NOT UNDER NWS QUALITY CONTROL. THEY ALSO MAY NOT
  REPORT WEATHER SUCH AS PRECIPITATION OR FOG.

ILZ001-002-007-009-015-016-024-230800-
NORTHWEST ILLINOIS

CITY           SKY/WX    TMP DP  RH WIND       PRES   REMARKS
MOLINE         CLEAR     77  74  90 CALM      29.98S
STERLING*      MOCLDY    76  76 100 CALM      30.00F
SAVANNA*       MOCLDY    75  75  98 CALM      29.99S
$$

ILZ003-004-008-010-011-017-018-230800-
NORTH CENTRAL ILLINOIS

CITY           SKY/WX    TMP DP  RH WIND       PRES   REMARKS
ROCKFORD       CLEAR     77  75  93 CALM      30.01F
FREEPORT*      CLEAR     73  72  97 CALM      30.02S
ROCHELLE*      PTCLDY    73  73  99 CALM      30.01F
DE KALB*       MOCLDY    78  75  92 SW5       30.02S
$$

ILZ005-006-012>014-019>023-230800-
NORTHEAST ILLINOIS

CITY           SKY/WX    TMP DP  RH WIND       PRES   REMARKS
CHICAGO-OHARE  MOCLDY    81  76  84 W6        30.00R HX  87
CHICAGO-MIDWAY CLOUDY    82  75  79 SW5       29.99S HX  89
AURORA         CLOUDY    78  75  90 W5        30.01S HX  81
LANSING*       PTCLDY    75  73  91 S5        30.00F
WAUKEGAN       PTCLDY    77  75  93 CALM      29.98F
DUPAGE AIRPORT MOCLDY    79  75  87 SW3       30.00S HX  83
WHEELING       PTCLDY    81  75  82 W3        30.00S HX  87
MORRIS*        MOCLDY    76  74  94 CALM      29.99S
NORTHERLY ISL    N/A     82  73  74 W7          N/A  HX  87
$$

LMZ740>746-230800-
SOUTHERN LAKE MICHIGAN

STATION/POSITION SKY/WX   TEMP    WIND        PRES    VSBY  WAVE
                          AIR SEA DIR/SP/G                  HT/PER
                          (F)     (DEG/KT/KT) (MB)    (MI)  (FT/S)
SOUTHERN BUOY              74 73  270/  4/  4 1014.8          0
WILMETTE HARBOR            78 73  200/  2/  2   N/A           0
HARRISON CRIB              85     260/  9/ 10   N/A
BURNHAM HARBOR             82     260/  5/  8   N/A
CALUMET HARBOR             80     210/  3/  5 1015.2R
BURNS HARBOR               79     210/ 10/ 13 1015.9F
MICHIGAN CITY              78     180/  9/ 10   N/A
MICHIGAN CITY 6N           78 75  210/  6/  8   N/A           0
ST. JOSEPH                 75 75  180/  4/  6 1015.3F         0
$$

ILZ025>027-034>036-040-047-049-050-058-095>099-230800-
WEST-CENTRAL ILLINOIS

CITY           SKY/WX    TMP DP  RH WIND       PRES   REMARKS
QUINCY         CLEAR     76  74  93 S6        29.99F
GALESBURG*     CLEAR     75  74  97 CALM      29.99F
MACOMB*        PTCLDY    75  74  98 CALM      30.01F
JACKSONVILLE*  CLEAR     76  74  94 CALM      29.99F
$$

ILZ028>032-037-038-041>044-048-051>054-059>061-230800-
CENTRAL ILLINOIS

CITY           SKY/WX    TMP DP  RH WIND       PRES   REMARKS
PONTIAC        CLEAR     77  76  97 SW3       30.01F
BLOOMINGTON    PTCLDY    75  72  90 SW3       30.03S
DECATUR        CLOUDY    78  73  84 CALM      30.01F HX  81
PEORIA         CLEAR     77  76  96 S3        30.00F
LACON*         PTCLDY    76  74  93 CALM      29.99F
LINCOLN*       PTCLDY    75  73  93 CALM      30.00S
SPRINGFIELD    CLOUDY    77  74  90 CALM      30.00S
TAYLORVILLE    CLOUDY    73  73  98 CALM      30.01S
$$

ILZ033-039-045-046-055>057-062-063-230800-
EAST-CENTRAL ILLINOIS

CITY           SKY/WX    TMP DP  RH WIND       PRES   REMARKS
CHAMPAIGN      PTCLDY    73  71  93 CALM      30.02S
MATTOON        CLEAR     73  70  90 CALM      30.01S
PARIS*         CLEAR     70  70 100 CALM      30.03R
$$

ILZ079-100>102-230800-
SOUTHWEST ILLINOIS

CITY           SKY/WX    TMP DP  RH WIND       PRES   REMARKS
ALTON          CLEAR     72  71  98 CALM      30.00F FOG
BELLEVILLE     PTCLDY    73  73 100 NW2       29.98S
CAHOKIA*       PTCLDY    74  71  91 CALM      29.99F
SPARTA*        CLOUDY    73  73  97 CALM      30.01S
$$

ILZ064>066-069>071-074>076-080>082-084>086-088>090-092>094-230800-
SOUTH-CENTRAL ILLINOIS

CITY           SKY/WX    TMP DP  RH WIND       PRES   REMARKS
CARBONDALE     PTCLDY    74  72  93 CALM      29.99F FOG
CAIRO*         CLOUDY    75  75 100 CALM      29.99S FOG
EFFINGHAM*     CLEAR     73  73 100 CALM      30.01F
MARION         CLOUDY    75  73  94 CALM      30.00S FOG
MT. VERNON     PTCLDY    72  68  88 CALM      30.00F
CENTRALIA*     CLEAR     73  73 100 CALM      29.99F
SALEM*         FOG       73  72  95 CALM      30.00F VSB 1
METROPOLIS*    CLOUDY    76  75  99 CALM      30.00S FOG
$$

ILZ067-068-072-073-078-083-087-091-230800-
SOUTHEAST ILLINOIS

CITY           SKY/WX    TMP DP  RH WIND       PRES   REMARKS
LAWRENCEVILLE  FOG       74  74 100 CALM      29.99F VSB 1/4
FLORA*         PTCLDY    74  73  97 CALM      30.00F FOG
FAIRFIELD*     CLEAR     73  73 100 CALM      29.99S FOG
HARRISBURG*    FOG       77  77 100 CALM      30.00S VSB<1/4
ROBINSON*      FOG       71  71 100 CALM      30.01F VSB 1/2
CARMI*         FOG       74  74 100 CALM      29.99S VSB 1/4
$$

ABBREVIATIONS USED IN REMARKS
   TC - TEMPERATURE IN CELSIUS
  WCI - WIND CHILL INDEX
   HX - HEAT INDEX
  VSB - VISIBILITY
$$




USA.gov is the U.S. government's official web portal to all federal, state and local government web resources and services.